STARLINK-31163, 58807

Orbit data source: Space-Track

STARLINK-31163, 58807 is a payload satellite owned by SpaceX/Seattle (US) in LEO that was launched on Mon, 15 Jan 2024 UTC via an FALCON 9 launch vehicle from the Air Force Eastern Test Range (AFETR). Payload-class satellites include a variety of spacecraft equipped with specific instruments for various scientific and technological missions. These include communications satellites like Starlink; space stations such as the ISS; scientific satellites like the Hubble; Earth observation satellites from companies like Planet Labs, Umbra, and HawkEye 360; GPS; miniature CubeSats for education and research; and military/defense satellites.

Loading next visibility...
Identifier
58807, 2024-012W
Orbit
LEO
Country
Flag of USUS
Related business
Manufacturer
SpaceX/Seattle
Mission
Operational Commercial Communications
Bus & Motor
STARLINK V2M, Unknown motor
Mass
730 kg wet, ~700 kg dry
Launch date (UTC)
2024-01-15 (2 years ago)
Launch vehicle
FALCON 9
Launch site
Air Force Eastern Test Range (AFETR)
Object type
Payload
Rocket body
Debris
Shape & HBR
Box + 2 Pan, 17.7 m
Radar Cross Section
33.884 m², Large (>1 m²)

Expand to show TLE details & history
Last TLE update: 2 days ago

TLE from 2 days ago
0 STARLINK-31163
1 58807U 24012W   26171.43282215  .00000328  00000-0  21456-4 0  9996
2 58807  43.0033 304.6226 0001360 265.7851  94.2845 15.27575597136959
Epoch: 2026-06-20T10:23Z
TLE epoch observation values (Epoch: 2026-06-20T10:23:15.833Z)
Latitude
-0.00005°
Longitude
-119.84095°
Altitude
482.908 km
Speed
7.626 km/s
True Right ascension
20h 18m 29s
True Declination
0° 00' 00"
Sunlit
Object was in full shadow at epoch
Visualization orbit readout
Latitude
Unknown
Longitude
Unknown
Altitude
Unknown
Speed
Unknown
Apparent Right ascension
Unknown
Apparent Declination
Unknown
Sunlit
N/A
Visualization observer readout
Local Sidereal Time
21:29:16
Azimuth
Unknown
Elevation
Unknown
Doppler factor
Unknown
Orbital elements
Apogee altitude
485.94 km
Perigee altitude
484.074 km
Semi-major axis
6,863.144 km
Eccentricity
0.00014
Inclination
43.0033°
RAAN
304.6226°
Arg. of periapsis
265.7851°
True anomaly
94.30004°
Mean anomaly
94.2845°
Eccentric anomaly
94.29227°
Mean motion
3.81732 °/min
Orbital period
94.31 mins
BSTAR
0.000021456
Loading maneuver chart data...
Computing Atmospheric mass density...
Loading historical data...
Loading historical data...
Loading historical data...
Loading historical data...
Loading historical data...
Loading historical data...
Loading historical data...

Documentation

Showing up to 5 results
|